When you browse on this site, cookies collect data to enhance your experience and personalize the content and advertising you see.
Visit our Privacy Policy to learn more. By continuing to use the site, you agree to this use of cookies and data.
  • în România
  • Lista ţărilor
  • Pe 7 zile
  • Temperatura apei
  • Hartă satelitară
  • Meteo pe hartă
  • Widget-uri
  • user-avatar
    Intrare

    Meteo pe oră la Invercargill

    Astăzi, 25 Mai, Sâmbătă

    Timp Temperatura Precipitaţii Vânt Presiune Umiditate
    00:00 +11°C° 0 mm 3 m/s 762 mmHg 80%
    01:00 +10°C° 0 mm 3 m/s 762 mmHg 81%
    02:00 +10°C° 0 mm 2 m/s 762 mmHg 82%
    03:00 +10°C° 0 mm 2 m/s 761 mmHg 83%
    04:00 +10°C° 0 mm 2 m/s 761 mmHg 84%
    05:00 +10°C° 0 mm 3 m/s 760 mmHg 82%
    06:00 +10°C° 0 mm 3 m/s 760 mmHg 81%
    07:00 +10°C° 0 mm 3 m/s 760 mmHg 81%
    08:00 +10°C° 0 mm 3 m/s 760 mmHg 80%
    09:00 +12°C° 0 mm 3 m/s 759 mmHg 72%
    10:00 +14°C° 0 mm 4 m/s 759 mmHg 65%
    11:00 +17°C° 0 mm 4 m/s 758 mmHg 57%
    12:00 +17°C° 0 mm 4 m/s 758 mmHg 58%
    13:00 +17°C° 0 mm 4 m/s 757 mmHg 58%
    14:00 +16°C° 0 mm 5 m/s 756 mmHg 58%
    15:00 +15°C° 0 mm 4 m/s 756 mmHg 62%
    16:00 +14°C° 0 mm 4 m/s 755 mmHg 67%
    17:00 +13°C° 0 mm 3 m/s 755 mmHg 71%
    18:00 +13°C° 0.3 mm 3 m/s 755 mmHg 76%
    19:00 +12°C° 0.3 mm 3 m/s 755 mmHg 82%
    20:00 +12°C° 0.3 mm 3 m/s 755 mmHg 88%
    21:00 +12°C° 0.3 mm 3 m/s 755 mmHg 89%
    22:00 +12°C° 0.3 mm 3 m/s 754 mmHg 91%
    23:00 +12°C° 0.3 mm 3 m/s 754 mmHg 92%

    Mâine, 26 Mai, Duminică

    Timp Temperatura Precipitaţii Vânt Presiune Umiditate
    00:00 +11°C° 0 mm 3 m/s 755 mmHg 93%
    01:00 +11°C° 0 mm 3 m/s 755 mmHg 94%
    02:00 +11°C° 0 mm 3 m/s 755 mmHg 95%
    03:00 +11°C° 0 mm 3 m/s 755 mmHg 95%
    04:00 +10°C° 0 mm 3 m/s 756 mmHg 95%
    05:00 +10°C° 0 mm 2 m/s 756 mmHg 95%
    06:00 +10°C° 0 mm 2 m/s 756 mmHg 95%
    07:00 +10°C° 0 mm 2 m/s 756 mmHg 95%
    08:00 +10°C° 0 mm 2 m/s 756 mmHg 95%
    09:00 +12°C° 0 mm 2 m/s 756 mmHg 89%
    10:00 +14°C° 0 mm 2 m/s 756 mmHg 83%
    11:00 +16°C° 0 mm 2 m/s 756 mmHg 77%
    12:00 +18°C° 0 mm 1 m/s 755 mmHg 74%
    13:00 +18°C° 0 mm 1 m/s 755 mmHg 72%
    14:00 +19°C° 0 mm 1 m/s 754 mmHg 69%
    15:00 +16°C° 0.3 mm 1 m/s 754 mmHg 77%
    16:00 +15°C° 0.3 mm 1 m/s 754 mmHg 84%
    17:00 +13°C° 0.3 mm 1 m/s 754 mmHg 92%
    18:00 +13°C° 0.5 mm 2 m/s 754 mmHg 92%
    19:00 +13°C° 0.5 mm 2 m/s 753 mmHg 93%
    20:00 +12°C° 0.5 mm 3 m/s 753 mmHg 93%
    21:00 +12°C° 0.2 mm 3 m/s 753 mmHg 93%
    22:00 +12°C° 0.2 mm 3 m/s 752 mmHg 92%
    23:00 +11°C° 0.2 mm 3 m/s 752 mmHg 91%

    Poimâine, 27 Mai, Luni

    Timp Temperatura Precipitaţii Vânt Presiune Umiditate
    00:00 +12°C° 0 mm 2 m/s 751 mmHg 91%
    01:00 +12°C° 0 mm 2 m/s 751 mmHg 91%
    02:00 +12°C° 0 mm 2 m/s 751 mmHg 91%
    03:00 +12°C° 1.1 mm 2 m/s 751 mmHg 93%
    04:00 +12°C° 1.1 mm 2 m/s 751 mmHg 95%
    05:00 +11°C° 1.1 mm 3 m/s 751 mmHg 96%
    06:00 +10°C° 0.2 mm 2 m/s 752 mmHg 97%
    07:00 +10°C° 0.2 mm 2 m/s 752 mmHg 97%
    08:00 +11°C° 0.2 mm 1 m/s 753 mmHg 98%
    09:00 +12°C° 0 mm 1 m/s 753 mmHg 96%
    10:00 +13°C° 0 mm 1 m/s 753 mmHg 94%
    11:00 +13°C° 0 mm 1 m/s 753 mmHg 92%
    12:00 +14°C° 0 mm 1 m/s 753 mmHg 90%
    13:00 +14°C° 0 mm 1 m/s 752 mmHg 88%
    14:00 +15°C° 0 mm 1 m/s 752 mmHg 86%
    15:00 +14°C° 0 mm 1 m/s 752 mmHg 90%
    16:00 +13°C° 0 mm 1 m/s 752 mmHg 94%
    17:00 +11°C° 0 mm 1 m/s 752 mmHg 98%
    18:00 +11°C° 0 mm 1 m/s 752 mmHg 98%
    19:00 +11°C° 0 mm 1 m/s 751 mmHg 97%
    20:00 +9°C° 0 mm 2 m/s 751 mmHg 97%
    21:00 +9°C° 0 mm 2 m/s 751 mmHg 97%
    22:00 +9°C° 0 mm 2 m/s 751 mmHg 96%
    23:00 +8°C° 0 mm 2 m/s 750 mmHg 96%

    28 Mai, Marţi

    Timp Temperatura Precipitaţii Vânt Presiune Umiditate
    00:00 +8°C° 0 mm 2 m/s 749 mmHg 95%
    01:00 +8°C° 0 mm 2 m/s 749 mmHg 93%
    02:00 +8°C° 0 mm 2 m/s 748 mmHg 92%
    03:00 +9°C° 0.2 mm 2 m/s 747 mmHg 92%
    04:00 +9°C° 0.2 mm 2 m/s 746 mmHg 91%
    05:00 +9°C° 0.2 mm 2 m/s 746 mmHg 91%
    06:00 +9°C° 0.2 mm 2 m/s 745 mmHg 90%
    07:00 +10°C° 0.2 mm 2 m/s 745 mmHg 90%
    08:00 +10°C° 0.2 mm 2 m/s 744 mmHg 90%
    09:00 +12°C° 0 mm 2 m/s 743 mmHg 83%
    10:00 +14°C° 0 mm 2 m/s 743 mmHg 77%
    11:00 +16°C° 0 mm 2 m/s 742 mmHg 71%
    12:00 +16°C° 0 mm 2 m/s 741 mmHg 71%
    13:00 +18°C° 0 mm 1 m/s 740 mmHg 70%
    14:00 +18°C° 0 mm 1 m/s 739 mmHg 69%
    15:00 +16°C° 0.6 mm 1 m/s 739 mmHg 78%
    16:00 +14°C° 0.6 mm 1 m/s 738 mmHg 86%
    17:00 +13°C° 0.6 mm 1 m/s 738 mmHg 94%
    18:00 +12°C° 0.5 mm 3 m/s 738 mmHg 94%
    19:00 +11°C° 0.5 mm 4 m/s 739 mmHg 94%
    20:00 +10°C° 0.5 mm 5 m/s 740 mmHg 94%
    21:00 +9°C° 0 mm 5 m/s 740 mmHg 92%
    22:00 +9°C° 0 mm 5 m/s 741 mmHg 90%
    23:00 +8°C° 0 mm 5 m/s 742 mmHg 88%

    29 Mai, Miercuri

    Timp Temperatura Precipitaţii Vânt Presiune Umiditate
    00:00 +8°C° 0 mm 5 m/s 743 mmHg 88%
    01:00 +7°C° 0 mm 4 m/s 743 mmHg 88%
    02:00 +7°C° 0 mm 3 m/s 743 mmHg 89%
    03:00 +7°C° 0 mm 3 m/s 744 mmHg 89%
    04:00 +7°C° 0 mm 3 m/s 744 mmHg 89%
    05:00 +7°C° 0 mm 2 m/s 744 mmHg 90%
    06:00 +7°C° 0 mm 2 m/s 744 mmHg 89%
    07:00 +7°C° 0 mm 2 m/s 744 mmHg 88%
    08:00 +8°C° 0 mm 2 m/s 744 mmHg 87%
    09:00 +10°C° 0 mm 3 m/s 744 mmHg 79%
    10:00 +13°C° 0 mm 3 m/s 744 mmHg 71%
    11:00 +15°C° 0 mm 4 m/s 744 mmHg 63%
    12:00 +15°C° 0 mm 4 m/s 743 mmHg 60%
    13:00 +17°C° 0 mm 4 m/s 743 mmHg 57%
    14:00 +17°C° 0 mm 4 m/s 743 mmHg 54%
    15:00 +14°C° 0.1 mm 3 m/s 743 mmHg 63%
    16:00 +14°C° 0.1 mm 2 m/s 743 mmHg 72%
    17:00 +12°C° 0.1 mm 1 m/s 743 mmHg 81%
    18:00 +11°C° 0.6 mm 1 m/s 744 mmHg 86%
    19:00 +11°C° 0.6 mm 1 m/s 744 mmHg 91%
    20:00 +10°C° 0.6 mm 1 m/s 745 mmHg 96%
    21:00 +10°C° 0.3 mm 1 m/s 745 mmHg 97%
    22:00 +9°C° 0.3 mm 1 m/s 745 mmHg 97%
    23:00 +8°C° 0.3 mm 0 m/s 745 mmHg 97%

    30 Mai, Joi

    Timp Temperatura Precipitaţii Vânt Presiune Umiditate
    00:00 +8°C° 0.3 mm 0 m/s 745 mmHg 97%
    01:00 +8°C° 0.3 mm 0 m/s 745 mmHg 97%
    02:00 +8°C° 0.3 mm 0 m/s 745 mmHg 97%
    03:00 +8°C° 0.2 mm 0 m/s 745 mmHg 97%
    04:00 +8°C° 0.2 mm 0 m/s 745 mmHg 97%
    05:00 +8°C° 0.2 mm 0 m/s 745 mmHg 97%
    06:00 +9°C° 0.3 mm 1 m/s 745 mmHg 97%
    07:00 +10°C° 0.3 mm 1 m/s 746 mmHg 97%
    08:00 +10°C° 0.3 mm 1 m/s 746 mmHg 98%
    09:00 +10°C° 1.1 mm 1 m/s 746 mmHg 98%
    10:00 +10°C° 1.1 mm 1 m/s 747 mmHg 98%
    11:00 +11°C° 1.1 mm 1 m/s 747 mmHg 97%
    12:00 +11°C° 0.7 mm 1 m/s 747 mmHg 97%
    13:00 +11°C° 0.7 mm 1 m/s 747 mmHg 96%
    14:00 +11°C° 0.7 mm 1 m/s 747 mmHg 96%
    15:00 +10°C° 0.5 mm 1 m/s 747 mmHg 96%
    16:00 +10°C° 0.5 mm 1 m/s 747 mmHg 97%
    17:00 +9°C° 0.5 mm 1 m/s 747 mmHg 97%
    18:00 +9°C° 0.9 mm 1 m/s 748 mmHg 98%
    19:00 +9°C° 0.9 mm 1 m/s 748 mmHg 98%
    20:00 +8°C° 0.9 mm 1 m/s 748 mmHg 98%
    21:00 +8°C° 0.4 mm 1 m/s 748 mmHg 98%
    22:00 +8°C° 0.4 mm 1 m/s 749 mmHg 98%
    23:00 +8°C° 0.4 mm 1 m/s 749 mmHg 99%
    Arată mai mult